Showing default

GEESAT 3-01, 61011

Orbit data source: Space-Track

GEESAT 3-01, 61011 is a payload satellite owned by GeeSpace (CN) in LEO that was launched on Thu, 05 Sep 2024 UTC via a CHANG ZHENG 6 launch vehicle from the Taiyaun Space Center, China (TSC). Payloads include a variety of satellites, spacecraft, and rockets equipped with specific instruments for various scientific and technological missions. These include communications satellites like Starlink; space stations such as the ISS; scientific satellites like the Hubble; Earth observation satellites from companies like Planet Labs, Umbra, and HawkEye 360; GPS; miniature CubeSats for education and research; and military/defense satellites.

Loading next visibility...
GEESAT 3-01 details
Identifier
61011, 2024-159A
Orbit
LEO
Last TLE update9 hours ago
Origin
Flag of CNGeeSpace (CN / PRC)
ManufacturerTaizhou Xingkong
MissionOperational spacecraft
Bus & MotorGEESAT1, Unknown motor
Mass130 kg wet, 130 kg dry
Launch date (UTC)
2024-09-05 (4 months ago)
Launch vehicle
CHANG ZHENG 6
Launch site
Taiyaun Space Center, China (TSC)
Object type
Payload
Rocket body
Debris
Shape & HBRUnknown
Radar Cross SectionLarge (>1 m²)

Expand to show TLE details & history

TLE from 9 hours ago
0 GEESAT 3-01
1 61011U 24159A   25015.12201060  .00007343  00000-0  74345-3 0  9998
2 61011  50.0024 341.9569 0007073  57.1843 302.9779 14.91766602 19632
Epoch: 2025-01-15T02:55Z
Definitive object data (Epoch: 2025-01-15T02:55:41.715Z)
Latitude-0.00005°
Longitude-176.78584°
Altitude590.292 km
Speed7.568 km/s
True Right ascension22h 47m 49s
True Declination0° 00' 00"
Sunlit
Object was in daylight at TLE epoch
Visualization TLE readout
Latitude10.39719°
Longitude-7.31062°
Altitude593.705 km
Speed7.564 km/s
Apparent Right ascension07h 07m 51s
Apparent Declination-35° 37' 12"
Sunlit
Object is in full shadow
Visualization observer readout
Local Sidereal Time12:22:45
Azimuth235.461° WSW
Elevation-14.584°
Doppler factor1
Orbital elements
Apogee altitude598.118 km
Perigee altitude588.257 km
Semi-major axis6,971.325 km
Eccentricity0.0007073
Inclination50.0024°
RAAN341.9569°
Arg. of periapsis57.1843°
True anomaly302.90988°
Mean anomaly302.9779°
Eccentric anomaly302.94389°
Mean motion3.72881 °/min
BSTAR0.00074345
Orbital period96.55 mins
Loading maneuver chart data...
Loading historical data...
Loading historical data...
Loading historical data...
Loading historical data...
Loading historical data...
Loading historical data...
Loading historical data...

GEESAT 3-01 Visibility forecast

Observer location: undefined°, undefined

Span
Click to sort rows by Start time (UTC) header in descending order
Start Az.
Max El. time (UTC)
Max El. Az.
Max El.
End time (UTC)
End Az.
7 mins2025-01-15 23:59:30.389Z206.77° SW2025-01-16 00:03:30.389Z121.564° SE33.466°2025-01-16 00:06:30.389Z70.508° E
6 mins2025-01-16 01:41:30.389Z276.552° WNW2025-01-16 01:43:30.389Z319.623° NNW32.455°2025-01-16 01:47:30.389Z43.831° NE
5 mins2025-01-16 03:23:30.389Z318.814° NNW2025-01-16 03:25:30.389Z354.225° N20.25°2025-01-16 03:28:30.389Z42.823° NE
5 mins2025-01-16 05:05:30.389Z335.75° NNW2025-01-16 05:07:30.389Z19.269° NNE25.486°2025-01-16 05:10:30.389Z72° E
7 mins2025-01-16 06:45:30.389Z302.918° NW2025-01-16 06:48:30.389Z259.02° W44.815°2025-01-16 06:52:30.389Z127.69° SE
|